When you browse on this site, cookies collect data to enhance your experience and personalize the content and advertising you see.
Visit our Privacy Policy to learn more. By continuing to use the site, you agree to this use of cookies and data.
  • In Hungary
  • List of Countries
  • For 7 days
  • Water Temperature
  • Satellite Maps
  • Weather Map
  • News
  • Weather Widgets
  • user-avatar
    Login

    Hourly Weather Volkermarkt

    Today, 21 March, Thursday

    Time Temperature Precipitation Wind Pressure Humidity
    00:00 +1°C° 0 mm 1 mps 735 mmHg 77%
    01:00 +1°C° 0 mm 1 mps 736 mmHg 81%
    02:00 +1°C° 0 mm 1 mps 736 mmHg 81%
    03:00 +1°C° 0 mm 1 mps 735 mmHg 80%
    04:00 +1°C° 0 mm 1 mps 735 mmHg 80%
    05:00 +1°C° 0 mm 1 mps 735 mmHg 77%
    06:00 +2°C° 0 mm 1 mps 735 mmHg 73%
    07:00 +3°C° 0 mm 1 mps 736 mmHg 70%
    08:00 +5°C° 0 mm 1 mps 735 mmHg 59%
    09:00 +8°C° 0 mm 1 mps 735 mmHg 49%
    10:00 +11°C° 0 mm 1 mps 735 mmHg 39%
    11:00 +12°C° 0 mm 1 mps 735 mmHg 36%
    12:00 +13°C° 0 mm 1 mps 735 mmHg 33%
    13:00 +14°C° 0 mm 1 mps 735 mmHg 31%
    14:00 +14°C° 0 mm 1 mps 734 mmHg 32%
    15:00 +14°C° 0 mm 1 mps 734 mmHg 33%
    16:00 +14°C° 0 mm 1 mps 734 mmHg 35%
    17:00 +11°C° 0 mm 1 mps 734 mmHg 43%
    18:00 +9°C° 0 mm 1 mps 734 mmHg 52%
    19:00 +6°C° 0 mm 1 mps 734 mmHg 60%
    20:00 +6°C° 0 mm 1 mps 734 mmHg 62%
    21:00 +5°C° 0 mm 1 mps 734 mmHg 64%
    22:00 +4°C° 0 mm 1 mps 734 mmHg 66%
    23:00 +4°C° 0 mm 1 mps 734 mmHg 66%

    Tomorrow, 22 March, Friday

    Time Temperature Precipitation Wind Pressure Humidity
    00:00 +4°C° 0 mm 1 mps 734 mmHg 65%
    01:00 +4°C° 0 mm 1 mps 734 mmHg 65%
    02:00 +4°C° 0 mm 1 mps 734 mmHg 64%
    03:00 +4°C° 0 mm 1 mps 734 mmHg 63%
    04:00 +3°C° 0 mm 0 mps 734 mmHg 63%
    05:00 +4°C° 0 mm 1 mps 734 mmHg 61%
    06:00 +5°C° 0 mm 1 mps 734 mmHg 59%
    07:00 +5°C° 0 mm 1 mps 734 mmHg 57%
    08:00 +8°C° 0 mm 1 mps 734 mmHg 49%
    09:00 +11°C° 0 mm 1 mps 734 mmHg 42%
    10:00 +15°C° 0 mm 1 mps 734 mmHg 34%
    11:00 +16°C° 0 mm 1 mps 734 mmHg 33%
    12:00 +18°C° 0 mm 1 mps 733 mmHg 32%
    13:00 +19°C° 0 mm 1 mps 733 mmHg 30%
    14:00 +19°C° 0 mm 1 mps 733 mmHg 33%
    15:00 +18°C° 0 mm 1 mps 732 mmHg 35%
    16:00 +18°C° 0 mm 1 mps 732 mmHg 38%
    17:00 +14°C° 0 mm 1 mps 732 mmHg 46%
    18:00 +12°C° 0 mm 1 mps 732 mmHg 54%
    19:00 +9°C° 0 mm 1 mps 732 mmHg 62%
    20:00 +8°C° 0 mm 1 mps 732 mmHg 64%
    21:00 +8°C° 0 mm 1 mps 732 mmHg 66%
    22:00 +6°C° 0 mm 0 mps 732 mmHg 68%
    23:00 +6°C° 0 mm 0 mps 732 mmHg 69%

    Day after tomorrow, 23 March, Saturday

    Time Temperature Precipitation Wind Pressure Humidity
    00:00 +6°C° 0 mm 0 mps 732 mmHg 70%
    01:00 +5°C° 0 mm 0 mps 731 mmHg 71%
    02:00 +5°C° 0 mm 0 mps 731 mmHg 73%
    03:00 +5°C° 0 mm 0 mps 731 mmHg 74%
    04:00 +5°C° 0 mm 0 mps 731 mmHg 75%
    05:00 +5°C° 0 mm 0 mps 731 mmHg 75%
    06:00 +6°C° 0 mm 0 mps 731 mmHg 74%
    07:00 +6°C° 0 mm 0 mps 731 mmHg 73%
    08:00 +9°C° 0 mm 0 mps 731 mmHg 64%
    09:00 +13°C° 0 mm 0 mps 731 mmHg 55%
    10:00 +16°C° 0 mm 0 mps 731 mmHg 46%
    11:00 +17°C° 0 mm 0 mps 731 mmHg 44%
    12:00 +20°C° 0 mm 1 mps 731 mmHg 41%
    13:00 +21°C° 0 mm 1 mps 730 mmHg 39%
    14:00 +21°C° 0 mm 1 mps 730 mmHg 40%
    15:00 +20°C° 0 mm 1 mps 729 mmHg 41%
    16:00 +20°C° 0 mm 1 mps 729 mmHg 42%
    17:00 +16°C° 0 mm 1 mps 729 mmHg 52%
    18:00 +14°C° 0 mm 1 mps 729 mmHg 61%
    19:00 +11°C° 0 mm 1 mps 729 mmHg 70%
    20:00 +10°C° 0 mm 0 mps 729 mmHg 73%
    21:00 +9°C° 0 mm 0 mps 730 mmHg 75%
    22:00 +8°C° 0 mm 0 mps 730 mmHg 78%
    23:00 +8°C° 0 mm 0 mps 730 mmHg 79%

    24 March, Sunday

    Time Temperature Precipitation Wind Pressure Humidity
    00:00 +8°C° 0 mm 0 mps 730 mmHg 80%
    01:00 +7°C° 0 mm 0 mps 729 mmHg 81%
    02:00 +7°C° 0 mm 0 mps 729 mmHg 82%
    03:00 +7°C° 0 mm 0 mps 729 mmHg 83%
    04:00 +7°C° 0 mm 0 mps 729 mmHg 83%
    05:00 +7°C° 0 mm 0 mps 729 mmHg 82%
    06:00 +7°C° 0 mm 0 mps 729 mmHg 80%
    07:00 +8°C° 0 mm 0 mps 729 mmHg 79%
    08:00 +11°C° 0 mm 0 mps 729 mmHg 69%
    09:00 +14°C° 0 mm 0 mps 729 mmHg 59%
    10:00 +17°C° 0 mm 0 mps 729 mmHg 49%
    11:00 +20°C° 0 mm 1 mps 728 mmHg 46%
    12:00 +21°C° 0 mm 1 mps 728 mmHg 42%
    13:00 +21°C° 0 mm 1 mps 727 mmHg 39%
    14:00 +21°C° 0 mm 1 mps 727 mmHg 40%
    15:00 +21°C° 0 mm 1 mps 726 mmHg 40%
    16:00 +20°C° 0 mm 1 mps 726 mmHg 41%
    17:00 +18°C° 0 mm 1 mps 726 mmHg 49%
    18:00 +15°C° 0 mm 1 mps 725 mmHg 58%
    19:00 +12°C° 0 mm 0 mps 725 mmHg 66%
    20:00 +11°C° 0 mm 0 mps 725 mmHg 69%
    21:00 +11°C° 0 mm 1 mps 725 mmHg 71%
    22:00 +11°C° 0 mm 1 mps 725 mmHg 74%
    23:00 +10°C° 0 mm 1 mps 725 mmHg 76%

    25 March, Monday

    Time Temperature Precipitation Wind Pressure Humidity
    00:00 +10°C° 0 mm 1 mps 725 mmHg 79%
    01:00 +10°C° 0 mm 1 mps 725 mmHg 81%
    02:00 +9°C° 0 mm 1 mps 725 mmHg 83%
    03:00 +9°C° 0 mm 1 mps 725 mmHg 85%
    04:00 +9°C° 0 mm 1 mps 725 mmHg 86%
    05:00 +9°C° 0.1 mm 1 mps 725 mmHg 85%
    06:00 +10°C° 0.1 mm 1 mps 725 mmHg 84%
    07:00 +10°C° 0.1 mm 1 mps 725 mmHg 82%
    08:00 +12°C° 0.2 mm 1 mps 725 mmHg 74%
    09:00 +14°C° 0.2 mm 1 mps 725 mmHg 66%
    10:00 +15°C° 0.2 mm 0 mps 726 mmHg 59%
    11:00 +16°C° 0.1 mm 1 mps 726 mmHg 55%
    12:00 +18°C° 0.1 mm 1 mps 725 mmHg 51%
    13:00 +19°C° 0.1 mm 1 mps 725 mmHg 47%
    14:00 +19°C° 0.2 mm 1 mps 725 mmHg 48%
    15:00 +18°C° 0.2 mm 1 mps 725 mmHg 48%
    16:00 +18°C° 0.2 mm 1 mps 724 mmHg 49%
    17:00 +15°C° 0.1 mm 1 mps 724 mmHg 55%
    18:00 +13°C° 0.1 mm 1 mps 724 mmHg 61%
    19:00 +11°C° 0.1 mm 1 mps 724 mmHg 68%
    20:00 +10°C° 0 mm 1 mps 725 mmHg 71%
    21:00 +9°C° 0 mm 1 mps 725 mmHg 74%
    22:00 +8°C° 0 mm 1 mps 725 mmHg 78%
    23:00 +7°C° 0 mm 1 mps 725 mmHg 79%

    26 March, Tuesday

    Time Temperature Precipitation Wind Pressure Humidity
    00:00 +7°C° 0 mm 1 mps 725 mmHg 79%
    01:00 +6°C° 0 mm 1 mps 725 mmHg 80%
    02:00 +6°C° 0 mm 1 mps 725 mmHg 80%
    03:00 +5°C° 0 mm 1 mps 724 mmHg 80%
    04:00 +5°C° 0 mm 1 mps 724 mmHg 79%
    05:00 +5°C° 0 mm 1 mps 724 mmHg 76%
    06:00 +5°C° 0 mm 1 mps 725 mmHg 73%
    07:00 +5°C° 0 mm 1 mps 725 mmHg 70%
    08:00 +6°C° 0 mm 2 mps 725 mmHg 59%
    09:00 +7°C° 0 mm 3 mps 726 mmHg 48%
    10:00 +7°C° 0 mm 4 mps 726 mmHg 36%
    11:00 +7°C° 0 mm 5 mps 726 mmHg 35%
    12:00 +7°C° 0 mm 6 mps 726 mmHg 33%
    13:00 +6°C° 0 mm 7 mps 726 mmHg 31%
    14:00 +5°C° 0 mm 7 mps 727 mmHg 31%
    15:00 +5°C° 0 mm 6 mps 727 mmHg 30%
    16:00 +5°C° 0 mm 6 mps 727 mmHg 30%
    17:00 +3°C° 0 mm 5 mps 728 mmHg 37%
    18:00 +3°C° 0 mm 4 mps 728 mmHg 43%
    19:00 +1°C° 0 mm 3 mps 728 mmHg 49%
    20:00 +2°C° 0 mm 2 mps 729 mmHg 51%
    21:00 +2°C° 0 mm 2 mps 730 mmHg 53%
    22:00 +2°C° 0 mm 2 mps 730 mmHg 54%
    23:00 +2°C° 0 mm 2 mps 730 mmHg 56%
    Show more